Location: Newark
(41.0400°S, 62.7845°W)
Time: 02:20:25
(UTC+00:00)

Transit 2A - Pass Details

Date: 06 December 2021
Orbit: 591 x 967 km, 66.7° (Epoch: 20 January)

Event Time Altitude Azimuth Distance (km) Brightness Sun altitude
Rises 16:48:54 0° 293° (WNW) 3,153 9.4 69.1°
Reaches altitude 10° 16:51:55 10° 276° (W) 2,168 8.7 68.8°
Maximum altitude 16:55:30 20° 228° (SW) 1,533 7.8 68.4°
Drops below altitude 10° 16:58:55 10° 180° (S) 2,045 8.2 68.0°
Sets 17:01:41 0° 162° (SSE) 2,918 8.8 67.7°
